owner,sensor,date,latitude,longitude,vertical_datum,wind_speed,wind_to_direction,wind_speed_of_gust,qcFlag 
TCOON,ioos:station:TCOON:057:1,2015-12-01T00:00:00Z,28.4460,-96.3961,0.0,7.6,337.0,8.9,'11111222,11111222,11111222' 
TCOON,ioos:station:TCOON:057:1,2015-12-01T00:06:00Z,28.4460,-96.3961,0.0,7.1,339.0,8.2,'11111222,11111222,11111222' 
TCOON,ioos:station:TCOON:057:1,2015-12-01T00:12:00Z,28.4460,-96.3961,0.0,7.2,347.0,8.0,'11111222,11111222,11111222' 
TCOON,ioos:station:TCOON:057:1,2015-12-01T00:18:00Z,28.4460,-96.3961,0.0,7.6,352.0,8.3,'11111222,11111222,11111222' 
TCOON,ioos:station:TCOON:057:1,2015-12-01T00:24:00Z,28.4460,-96.3961,0.0,8.3,354.0,8.9,'11111222,11111222,11111222' 
TCOON,ioos:station:TCOON:057:1,2015-12-01T00:30:00Z,28.4460,-96.3961,0.0,8.3,354.0,8.9,'1111122,1111122,1111122' 
TCOON,ioos:station:TCOON:057:1,2015-12-01T00:36:00Z,28.4460,-96.3961,0.0,7.4,346.0,8.3,'11111222,11111222,11111222' 
TCOON,ioos:station:TCOON:057:1,2015-12-01T00:42:00Z,28.4460,-96.3961,0.0,7.5,345.0,8.6,'11111222,11111222,11111222' 
TCOON,ioos:station:TCOON:057:1,2015-12-01T00:48:00Z,28.4460,-96.3961,0.0,7.9,340.0,8.6,'11111222,11111222,11111222' 
TCOON,ioos:station:TCOON:057:1,2015-12-01T00:54:00Z,28.4460,-96.3961,0.0,7.7,342.0,8.4,'11111222,11111222,11111222' 
TCOON,ioos:station:TCOON:057:1,2015-12-01T01:00:00Z,28.4460,-96.3961,0.0,7.2,344.0,8.6,'11111222,11111222,11111222' 
TCOON,ioos:station:TCOON:057:1,2015-12-01T01:06:00Z,28.4460,-96.3961,0.0,8.0,345.0,8.9,'11111222,11111222,11111222' 
TCOON,ioos:station:TCOON:057:1,2015-12-01T01:12:00Z,28.4460,-96.3961,0.0,6.4,358.0,8.1,'11111222,11111222,11111222' 
TCOON,ioos:station:TCOON:057:1,2015-12-01T01:18:00Z,28.4460,-96.3961,0.0,6.6,5.0,7.4,'11111222,11111222,11111222' 
TCOON,ioos:station:TCOON:057:1,2015-12-01T01:24:00Z,28.4460,-96.3961,0.0,6.6,5.0,7.4,'1111122,1111122,1111122' 
TCOON,ioos:station:TCOON:057:1,2015-12-01T01:30:00Z,28.4460,-96.3961,0.0,6.4,1.0,7.4,'11111222,11111222,11111222' 
TCOON,ioos:station:TCOON:057:1,2015-12-01T01:36:00Z,28.4460,-96.3961,0.0,6.0,8.0,7.5,'11111222,11111222,11111222' 
TCOON,ioos:station:TCOON:057:1,2015-12-01T01:42:00Z,28.4460,-96.3961,0.0,5.8,16.0,6.8,'11111222,11111222,11111222' 
TCOON,ioos:station:TCOON:057:1,2015-12-01T01:48:00Z,28.4460,-96.3961,0.0,5.3,20.0,6.6,'11111222,11111222,11111222' 
TCOON,ioos:station:TCOON:057:1,2015-12-01T01:54:00Z,28.4460,-96.3961,0.0,5.2,9.0,6.1,'11111222,11111222,11111222' 
TCOON,ioos:station:TCOON:057:1,2015-12-01T02:00:00Z,28.4460,-96.3961,0.0,5.3,8.0,6.5,'11111222,11111222,11111222' 
TCOON,ioos:station:TCOON:057:1,2015-12-01T02:06:00Z,28.4460,-96.3961,0.0,5.0,14.0,6.3,'11111222,11111222,11111222' 
TCOON,ioos:station:TCOON:057:1,2015-12-01T02:12:00Z,28.4460,-96.3961,0.0,5.4,10.0,6.1,'11111222,11111222,11111222' 
TCOON,ioos:station:TCOON:057:1,2015-12-01T02:18:00Z,28.4460,-96.3961,0.0,5.3,14.0,6.1,'11111222,11111222,11111222' 
TCOON,ioos:station:TCOON:057:1,2015-12-01T02:24:00Z,28.4460,-96.3961,0.0,4.8,9.0,5.9,'11111222,11111222,11111222' 
TCOON,ioos:station:TCOON:057:1,2015-12-01T02:30:00Z,28.4460,-96.3961,0.0,4.8,9.0,5.9,'1111122,1111122,1111122' 
TCOON,ioos:station:TCOON:057:1,2015-12-01T02:36:00Z,28.4460,-96.3961,0.0,5.4,18.0,6.3,'11111222,11111222,11111222' 
TCOON,ioos:station:TCOON:057:1,2015-12-01T02:42:00Z,28.4460,-96.3961,0.0,5.4,11.0,6.5,'11111222,11111222,11111222' 
TCOON,ioos:station:TCOON:057:1,2015-12-01T02:48:00Z,28.4460,-96.3961,0.0,5.7,6.0,6.4,'11111222,11111222,11111222' 
TCOON,ioos:station:TCOON:057:1,2015-12-01T02:54:00Z,28.4460,-96.3961,0.0,4.7,7.0,6.6,'11111222,11111222,11111222' 
TCOON,ioos:station:TCOON:057:1,2015-12-01T03:00:00Z,28.4460,-96.3961,0.0,4.6,3.0,5.8,'11111222,11111222,11111222' 
TCOON,ioos:station:TCOON:057:1,2015-12-01T03:06:00Z,28.4460,-96.3961,0.0,3.9,23.0,4.8,'11111222,11111222,11111222' 
TCOON,ioos:station:TCOON:057:1,2015-12-01T03:12:00Z,28.4460,-96.3961,0.0,4.7,16.0,5.2,'11111222,11111222,11111222' 
TCOON,ioos:station:TCOON:057:1,2015-12-01T03:18:00Z,28.4460,-96.3961,0.0,4.7,16.0,5.2,'1111122,1111122,1111122' 
TCOON,ioos:station:TCOON:057:1,2015-12-01T03:24:00Z,28.4460,-96.3961,0.0,5.4,356.0,6.9,'11111222,11111222,11111222' 
TCOON,ioos:station:TCOON:057:1,2015-12-01T03:30:00Z,28.4460,-96.3961,0.0,6.2,349.0,6.7,'11111222,11111222,11111222' 
TCOON,ioos:station:TCOON:057:1,2015-12-01T03:36:00Z,28.4460,-96.3961,0.0,6.0,348.0,6.8,'11111222,11111222,11111222' 
TCOON,ioos:station:TCOON:057:1,2015-12-01T03:42:00Z,28.4460,-96.3961,0.0,5.8,351.0,7.5,'11111222,11111222,11111222' 
TCOON,ioos:station:TCOON:057:1,2015-12-01T03:48:00Z,28.4460,-96.3961,0.0,6.3,349.0,7.2,'11111222,11111222,11111222' 
TCOON,ioos:station:TCOON:057:1,2015-12-01T03:54:00Z,28.4460,-96.3961,0.0,6.4,344.0,7.2,'11111222,11111222,11111222' 
TCOON,ioos:station:TCOON:057:1,2015-12-01T04:00:00Z,28.4460,-96.3961,0.0,6.2,344.0,7.5,'11111222,11111222,11111222' 
TCOON,ioos:station:TCOON:057:1,2015-12-01T04:06:00Z,28.4460,-96.3961,0.0,5.7,352.0,6.1,'11111222,11111222,11111222' 
TCOON,ioos:station:TCOON:057:1,2015-12-01T04:12:00Z,28.4460,-96.3961,0.0,5.9,352.0,6.7,'11111222,11111222,11111222' 
TCOON,ioos:station:TCOON:057:1,2015-12-01T04:18:00Z,28.4460,-96.3961,0.0,5.3,359.0,6.9,'11111222,11111222,11111222' 
TCOON,ioos:station:TCOON:057:1,2015-12-01T04:24:00Z,28.4460,-96.3961,0.0,5.1,358.0,6.2,'11111222,11111222,11111222' 
TCOON,ioos:station:TCOON:057:1,2015-12-01T04:30:00Z,28.4460,-96.3961,0.0,5.1,358.0,6.2,'1111122,1111122,1111122' 
TCOON,ioos:station:TCOON:057:1,2015-12-01T04:36:00Z,28.4460,-96.3961,0.0,6.6,339.0,7.5,'11111222,11111222,11111222' 
TCOON,ioos:station:TCOON:057:1,2015-12-01T04:42:00Z,28.4460,-96.3961,0.0,6.4,339.0,7.4,'11111222,11111222,11111222' 
TCOON,ioos:station:TCOON:057:1,2015-12-01T04:48:00Z,28.4460,-96.3961,0.0,6.2,333.0,7.6,'11111222,11111222,11111222' 
TCOON,ioos:station:TCOON:057:1,2015-12-01T04:54:00Z,28.4460,-96.3961,0.0,6.5,336.0,7.8,'11111222,11111222,11111222' 
TCOON,ioos:station:TCOON:057:1,2015-12-01T05:00:00Z,28.4460,-96.3961,0.0,5.5,354.0,7.1,'11111222,11111222,11111222' 
TCOON,ioos:station:TCOON:057:1,2015-12-01T05:06:00Z,28.4460,-96.3961,0.0,7.2,341.0,8.1,'11111222,11111222,11111222' 
TCOON,ioos:station:TCOON:057:1,2015-12-01T05:12:00Z,28.4460,-96.3961,0.0,6.8,341.0,7.7,'11111222,11111222,11111222' 
TCOON,ioos:station:TCOON:057:1,2015-12-01T05:18:00Z,28.4460,-96.3961,0.0,5.2,355.0,7.2,'11111222,11111222,11111222' 
TCOON,ioos:station:TCOON:057:1,2015-12-01T05:24:00Z,28.4460,-96.3961,0.0,5.5,347.0,6.1,'11111222,11111222,11111222' 
TCOON,ioos:station:TCOON:057:1,2015-12-01T05:30:00Z,28.4460,-96.3961,0.0,5.8,345.0,7.0,'11111222,11111222,11111222' 
TCOON,ioos:station:TCOON:057:1,2015-12-01T05:36:00Z,28.4460,-96.3961,0.0,5.8,345.0,7.0,'1111122,1111122,1111122' 
TCOON,ioos:station:TCOON:057:1,2015-12-01T05:42:00Z,28.4460,-96.3961,0.0,6.7,337.0,7.5,'11111222,11111222,11111222' 
TCOON,ioos:station:TCOON:057:1,2015-12-01T05:48:00Z,28.4460,-96.3961,0.0,6.1,344.0,7.5,'11111222,11111222,11111222' 
TCOON,ioos:station:TCOON:057:1,2015-12-01T05:54:00Z,28.4460,-96.3961,0.0,6.5,341.0,7.0,'11111222,11111222,11111222' 
TCOON,ioos:station:TCOON:057:1,2015-12-01T06:00:00Z,28.4460,-96.3961,0.0,5.2,345.0,7.0,'11111222,11111222,11111222' 
TCOON,ioos:station:TCOON:057:1,2015-12-01T06:06:00Z,28.4460,-96.3961,0.0,5.2,353.0,6.5,'11111222,11111222,11111222' 
TCOON,ioos:station:TCOON:057:1,2015-12-01T06:12:00Z,28.4460,-96.3961,0.0,5.4,348.0,6.5,'11111222,11111222,11111222' 
TCOON,ioos:station:TCOON:057:1,2015-12-01T06:18:00Z,28.4460,-96.3961,0.0,6.0,343.0,6.8,'11111222,11111222,11111222' 
TCOON,ioos:station:TCOON:057:1,2015-12-01T06:24:00Z,28.4460,-96.3961,0.0,6.0,343.0,6.8,'1111122,1111122,1111122' 
TCOON,ioos:station:TCOON:057:1,2015-12-01T06:30:00Z,28.4460,-96.3961,0.0,6.0,340.0,6.9,'11111222,11111222,11111222' 
TCOON,ioos:station:TCOON:057:1,2015-12-01T06:36:00Z,28.4460,-96.3961,0.0,6.4,336.0,7.3,'11111222,11111222,11111222' 
TCOON,ioos:station:TCOON:057:1,2015-12-01T06:42:00Z,28.4460,-96.3961,0.0,5.8,342.0,7.1,'11111222,11111222,11111222' 
TCOON,ioos:station:TCOON:057:1,2015-12-01T06:48:00Z,28.4460,-96.3961,0.0,5.9,343.0,6.6,'11111222,11111222,11111222' 
TCOON,ioos:station:TCOON:057:1,2015-12-01T06:54:00Z,28.4460,-96.3961,0.0,5.3,349.0,6.5,'11111222,11111222,11111222' 
TCOON,ioos:station:TCOON:057:1,2015-12-01T07:00:00Z,28.4460,-96.3961,0.0,5.6,2.0,6.3,'11111222,11111222,11111222' 
TCOON,ioos:station:TCOON:057:1,2015-12-01T07:06:00Z,28.4460,-96.3961,0.0,6.3,357.0,6.9,'11111222,11111222,11111222' 
TCOON,ioos:station:TCOON:057:1,2015-12-01T07:12:00Z,28.4460,-96.3961,0.0,6.1,347.0,6.9,'11111222,11111222,11111222' 
TCOON,ioos:station:TCOON:057:1,2015-12-01T07:18:00Z,28.4460,-96.3961,0.0,6.3,346.0,7.4,'11111222,11111222,11111222' 
TCOON,ioos:station:TCOON:057:1,2015-12-01T07:24:00Z,28.4460,-96.3961,0.0,6.3,346.0,7.4,'1111122,1111122,1111122' 
TCOON,ioos:station:TCOON:057:1,2015-12-01T07:30:00Z,28.4460,-96.3961,0.0,7.1,343.0,9.0,'11111222,11111222,11111222' 
TCOON,ioos:station:TCOON:057:1,2015-12-01T07:36:00Z,28.4460,-96.3961,0.0,7.4,331.0,8.5,'11111222,11111222,11111222' 
TCOON,ioos:station:TCOON:057:1,2015-12-01T07:42:00Z,28.4460,-96.3961,0.0,7.7,336.0,8.8,'11111222,11111222,11111222' 
TCOON,ioos:station:TCOON:057:1,2015-12-01T07:48:00Z,28.4460,-96.3961,0.0,6.6,344.0,8.6,'11111222,11111222,11111222' 
TCOON,ioos:station:TCOON:057:1,2015-12-01T07:54:00Z,28.4460,-96.3961,0.0,6.3,343.0,7.5,'11111222,11111222,11111222' 
TCOON,ioos:station:TCOON:057:1,2015-12-01T08:00:00Z,28.4460,-96.3961,0.0,6.0,336.0,7.4,'11111222,11111222,11111222' 
TCOON,ioos:station:TCOON:057:1,2015-12-01T08:06:00Z,28.4460,-96.3961,0.0,6.8,326.0,7.5,'11111222,11111222,11111222' 
TCOON,ioos:station:TCOON:057:1,2015-12-01T08:12:00Z,28.4460,-96.3961,0.0,6.0,340.0,7.7,'11111222,11111222,11111222' 
TCOON,ioos:station:TCOON:057:1,2015-12-01T08:18:00Z,28.4460,-96.3961,0.0,6.7,337.0,7.3,'11111222,11111222,11111222' 
TCOON,ioos:station:TCOON:057:1,2015-12-01T08:24:00Z,28.4460,-96.3961,0.0,6.8,351.0,7.6,'11111222,11111222,11111222' 
TCOON,ioos:station:TCOON:057:1,2015-12-01T08:30:00Z,28.4460,-96.3961,0.0,6.8,351.0,7.6,'1111122,1111122,1111122' 
TCOON,ioos:station:TCOON:057:1,2015-12-01T08:36:00Z,28.4460,-96.3961,0.0,6.9,358.0,7.8,'11111222,11111222,11111222' 
TCOON,ioos:station:TCOON:057:1,2015-12-01T08:42:00Z,28.4460,-96.3961,0.0,6.4,346.0,7.7,'11111222,11111222,11111222' 
TCOON,ioos:station:TCOON:057:1,2015-12-01T08:48:00Z,28.4460,-96.3961,0.0,6.5,354.0,7.7,'11111222,11111222,11111222' 
TCOON,ioos:station:TCOON:057:1,2015-12-01T08:54:00Z,28.4460,-96.3961,0.0,6.4,343.0,7.6,'11111222,11111222,11111222' 
TCOON,ioos:station:TCOON:057:1,2015-12-01T09:00:00Z,28.4460,-96.3961,0.0,6.7,345.0,7.8,'11111222,11111222,11111222' 
TCOON,ioos:station:TCOON:057:1,2015-12-01T09:06:00Z,28.4460,-96.3961,0.0,7.2,348.0,8.4,'11111222,11111222,11111222' 
TCOON,ioos:station:TCOON:057:1,2015-12-01T09:12:00Z,28.4460,-96.3961,0.0,7.1,347.0,8.3,'11111222,11111222,11111222' 
TCOON,ioos:station:TCOON:057:1,2015-12-01T09:18:00Z,28.4460,-96.3961,0.0,7.5,349.0,8.7,'11111222,11111222,11111222' 
TCOON,ioos:station:TCOON:057:1,2015-12-01T09:24:00Z,28.4460,-96.3961,0.0,8.0,344.0,9.3,'11111222,11111222,11111222' 
TCOON,ioos:station:TCOON:057:1,2015-12-01T09:30:00Z,28.4460,-96.3961,0.0,8.0,344.0,9.3,'1111122,1111122,1111122' 
TCOON,ioos:station:TCOON:057:1,2015-12-01T09:36:00Z,28.4460,-96.3961,0.0,6.9,339.0,8.5,'11111222,11111222,11111222' 
TCOON,ioos:station:TCOON:057:1,2015-12-01T09:42:00Z,28.4460,-96.3961,0.0,7.1,340.0,8.3,'11111222,11111222,11111222' 
TCOON,ioos:station:TCOON:057:1,2015-12-01T09:48:00Z,28.4460,-96.3961,0.0,7.1,339.0,8.1,'11111222,11111222,11111222' 
TCOON,ioos:station:TCOON:057:1,2015-12-01T09:54:00Z,28.4460,-96.3961,0.0,7.3,347.0,8.1,'11111222,11111222,11111222' 
TCOON,ioos:station:TCOON:057:1,2015-12-01T10:00:00Z,28.4460,-96.3961,0.0,6.9,348.0,8.4,'11111222,11111222,11111222' 
TCOON,ioos:station:TCOON:057:1,2015-12-01T10:06:00Z,28.4460,-96.3961,0.0,7.2,350.0,9.3,'11111222,11111222,11111222' 
TCOON,ioos:station:TCOON:057:1,2015-12-01T10:12:00Z,28.4460,-96.3961,0.0,7.3,343.0,9.2,'11111222,11111222,11111222' 
TCOON,ioos:station:TCOON:057:1,2015-12-01T10:18:00Z,28.4460,-96.3961,0.0,6.4,348.0,8.1,'11111222,11111222,11111222' 
TCOON,ioos:station:TCOON:057:1,2015-12-01T10:24:00Z,28.4460,-96.3961,0.0,7.3,358.0,8.6,'11111222,11111222,11111222' 
TCOON,ioos:station:TCOON:057:1,2015-12-01T10:30:00Z,28.4460,-96.3961,0.0,7.3,358.0,8.6,'1111122,1111122,1111122' 
TCOON,ioos:station:TCOON:057:1,2015-12-01T10:36:00Z,28.4460,-96.3961,0.0,7.2,1.0,8.2,'11111222,11111222,11111222' 
TCOON,ioos:station:TCOON:057:1,2015-12-01T10:42:00Z,28.4460,-96.3961,0.0,7.0,351.0,7.8,'11111222,11111222,11111222' 
TCOON,ioos:station:TCOON:057:1,2015-12-01T10:48:00Z,28.4460,-96.3961,0.0,7.2,0.0,8.0,'11111222,11111222,11111222' 
TCOON,ioos:station:TCOON:057:1,2015-12-01T10:54:00Z,28.4460,-96.3961,0.0,7.5,347.0,8.3,'11111222,11111222,11111222' 
TCOON,ioos:station:TCOON:057:1,2015-12-01T11:00:00Z,28.4460,-96.3961,0.0,8.5,350.0,9.4,'11111222,11111222,11111222' 
TCOON,ioos:station:TCOON:057:1,2015-12-01T11:06:00Z,28.4460,-96.3961,0.0,8.5,346.0,9.5,'11111222,11111222,11111222' 
TCOON,ioos:station:TCOON:057:1,2015-12-01T11:12:00Z,28.4460,-96.3961,0.0,8.5,344.0,9.5,'11111222,11111222,11111222' 
TCOON,ioos:station:TCOON:057:1,2015-12-01T11:18:00Z,28.4460,-96.3961,0.0,6.9,1.0,9.5,'11111222,11111222,11111222' 
TCOON,ioos:station:TCOON:057:1,2015-12-01T11:24:00Z,28.4460,-96.3961,0.0,6.9,1.0,9.5,'1111122,1111122,1111122' 
TCOON,ioos:station:TCOON:057:1,2015-12-01T11:30:00Z,28.4460,-96.3961,0.0,7.6,354.0,8.5,'11111222,11111222,11111222' 
TCOON,ioos:station:TCOON:057:1,2015-12-01T11:36:00Z,28.4460,-96.3961,0.0,7.0,351.0,8.0,'11111222,11111222,11111222' 
TCOON,ioos:station:TCOON:057:1,2015-12-01T11:42:00Z,28.4460,-96.3961,0.0,8.3,345.0,9.2,'11111222,11111222,11111222' 
TCOON,ioos:station:TCOON:057:1,2015-12-01T11:48:00Z,28.4460,-96.3961,0.0,7.7,346.0,9.0,'11111222,11111222,11111222' 
TCOON,ioos:station:TCOON:057:1,2015-12-01T11:54:00Z,28.4460,-96.3961,0.0,8.1,348.0,9.0,'11111222,11111222,11111222' 
TCOON,ioos:station:TCOON:057:1,2015-12-01T12:00:00Z,28.4460,-96.3961,0.0,7.1,357.0,8.4,'11111222,11111222,11111222' 
TCOON,ioos:station:TCOON:057:1,2015-12-01T12:06:00Z,28.4460,-96.3961,0.0,7.2,0.0,8.2,'11111222,11111222,11111222' 
TCOON,ioos:station:TCOON:057:1,2015-12-01T12:12:00Z,28.4460,-96.3961,0.0,6.5,358.0,7.9,'11111222,11111222,11111222' 
TCOON,ioos:station:TCOON:057:1,2015-12-01T12:18:00Z,28.4460,-96.3961,0.0,6.7,1.0,8.3,'11111222,11111222,11111222' 
TCOON,ioos:station:TCOON:057:1,2015-12-01T12:24:00Z,28.4460,-96.3961,0.0,6.7,3.0,7.9,'11111222,11111222,11111222' 
TCOON,ioos:station:TCOON:057:1,2015-12-01T12:30:00Z,28.4460,-96.3961,0.0,6.7,3.0,7.9,'1111122,1111122,1111122' 
TCOON,ioos:station:TCOON:057:1,2015-12-01T12:36:00Z,28.4460,-96.3961,0.0,7.9,5.0,8.8,'11111222,11111222,11111222' 
TCOON,ioos:station:TCOON:057:1,2015-12-01T12:42:00Z,28.4460,-96.3961,0.0,7.1,7.0,8.6,'11111222,11111222,11111222' 
TCOON,ioos:station:TCOON:057:1,2015-12-01T12:48:00Z,28.4460,-96.3961,0.0,7.5,10.0,8.3,'11111222,11111222,11111222' 
TCOON,ioos:station:TCOON:057:1,2015-12-01T12:54:00Z,28.4460,-96.3961,0.0,7.5,359.0,8.5,'11111222,11111222,11111222' 
TCOON,ioos:station:TCOON:057:1,2015-12-01T13:00:00Z,28.4460,-96.3961,0.0,7.4,355.0,8.6,'11111222,11111222,11111222' 
TCOON,ioos:station:TCOON:057:1,2015-12-01T13:06:00Z,28.4460,-96.3961,0.0,7.5,349.0,8.8,'11111222,11111222,11111222' 
TCOON,ioos:station:TCOON:057:1,2015-12-01T13:12:00Z,28.4460,-96.3961,0.0,7.8,350.0,9.0,'11111222,11111222,11111222' 
TCOON,ioos:station:TCOON:057:1,2015-12-01T13:18:00Z,28.4460,-96.3961,0.0,7.7,353.0,8.7,'11111222,11111222,11111222' 
TCOON,ioos:station:TCOON:057:1,2015-12-01T13:24:00Z,28.4460,-96.3961,0.0,7.8,351.0,9.4,'11111222,11111222,11111222' 
TCOON,ioos:station:TCOON:057:1,2015-12-01T13:30:00Z,28.4460,-96.3961,0.0,7.8,351.0,9.4,'1111122,1111122,1111122' 
TCOON,ioos:station:TCOON:057:1,2015-12-01T13:36:00Z,28.4460,-96.3961,0.0,8.1,351.0,8.7,'11111222,11111222,11111222' 
TCOON,ioos:station:TCOON:057:1,2015-12-01T13:42:00Z,28.4460,-96.3961,0.0,7.7,352.0,8.9,'11111222,11111222,11111222' 
TCOON,ioos:station:TCOON:057:1,2015-12-01T13:48:00Z,28.4460,-96.3961,0.0,8.0,354.0,9.3,'11111222,11111222,11111222' 
TCOON,ioos:station:TCOON:057:1,2015-12-01T13:54:00Z,28.4460,-96.3961,0.0,7.8,1.0,8.9,'11111222,11111222,11111222' 
TCOON,ioos:station:TCOON:057:1,2015-12-01T14:00:00Z,28.4460,-96.3961,0.0,8.2,354.0,9.2,'11111222,11111222,11111222' 
TCOON,ioos:station:TCOON:057:1,2015-12-01T14:06:00Z,28.4460,-96.3961,0.0,7.7,359.0,9.7,'11111222,11111222,11111222' 
TCOON,ioos:station:TCOON:057:1,2015-12-01T14:12:00Z,28.4460,-96.3961,0.0,8.1,360.0,9.0,'11111222,11144222,11111222' 
TCOON,ioos:station:TCOON:057:1,2015-12-01T14:18:00Z,28.4460,-96.3961,0.0,7.2,357.0,8.8,'11111222,11111222,11111222' 
TCOON,ioos:station:TCOON:057:1,2015-12-01T14:24:00Z,28.4460,-96.3961,0.0,7.2,357.0,8.8,'1111122,1111122,1111122' 
TCOON,ioos:station:TCOON:057:1,2015-12-01T14:30:00Z,28.4460,-96.3961,0.0,6.9,357.0,8.2,'11111222,11111222,11111222' 
TCOON,ioos:station:TCOON:057:1,2015-12-01T14:36:00Z,28.4460,-96.3961,0.0,6.6,355.0,7.5,'11111222,11111222,11111222' 
TCOON,ioos:station:TCOON:057:1,2015-12-01T14:42:00Z,28.4460,-96.3961,0.0,7.0,1.0,8.0,'11111222,11111222,11111222' 
TCOON,ioos:station:TCOON:057:1,2015-12-01T14:48:00Z,28.4460,-96.3961,0.0,7.1,7.0,7.8,'11111222,11111222,11111222' 
TCOON,ioos:station:TCOON:057:1,2015-12-01T14:54:00Z,28.4460,-96.3961,0.0,7.6,350.0,8.8,'11111222,11111222,11111222' 
TCOON,ioos:station:TCOON:057:1,2015-12-01T15:00:00Z,28.4460,-96.3961,0.0,7.0,356.0,8.3,'11111222,11111222,11111222' 
TCOON,ioos:station:TCOON:057:1,2015-12-01T15:06:00Z,28.4460,-96.3961,0.0,7.1,357.0,8.9,'11111222,11111222,11111222' 
TCOON,ioos:station:TCOON:057:1,2015-12-01T15:12:00Z,28.4460,-96.3961,0.0,7.1,1.0,8.5,'11111222,11111222,11111222' 
TCOON,ioos:station:TCOON:057:1,2015-12-01T15:18:00Z,28.4460,-96.3961,0.0,5.9,2.0,7.9,'11111222,11111222,11111222' 
TCOON,ioos:station:TCOON:057:1,2015-12-01T15:24:00Z,28.4460,-96.3961,0.0,6.9,355.0,8.2,'11111222,11111222,11111222' 
TCOON,ioos:station:TCOON:057:1,2015-12-01T15:30:00Z,28.4460,-96.3961,0.0,6.9,355.0,8.2,'1111122,1111122,1111122' 
TCOON,ioos:station:TCOON:057:1,2015-12-01T15:36:00Z,28.4460,-96.3961,0.0,6.8,9.0,7.8,'11111222,11111222,11111222' 
TCOON,ioos:station:TCOON:057:1,2015-12-01T15:42:00Z,28.4460,-96.3961,0.0,6.0,12.0,7.5,'11111222,11111222,11111222' 
TCOON,ioos:station:TCOON:057:1,2015-12-01T15:48:00Z,28.4460,-96.3961,0.0,6.0,11.0,6.9,'11111222,11111222,11111222' 
TCOON,ioos:station:TCOON:057:1,2015-12-01T15:54:00Z,28.4460,-96.3961,0.0,5.6,3.0,7.0,'11111222,11111222,11111222' 
TCOON,ioos:station:TCOON:057:1,2015-12-01T16:00:00Z,28.4460,-96.3961,0.0,6.1,3.0,6.9,'11111222,11111222,11111222' 
TCOON,ioos:station:TCOON:057:1,2015-12-01T16:06:00Z,28.4460,-96.3961,0.0,5.7,5.0,6.8,'11111222,11111222,11111222' 
TCOON,ioos:station:TCOON:057:1,2015-12-01T16:12:00Z,28.4460,-96.3961,0.0,5.3,360.0,6.9,'11111222,11144222,11111222' 
TCOON,ioos:station:TCOON:057:1,2015-12-01T16:18:00Z,28.4460,-96.3961,0.0,5.7,358.0,6.4,'11111222,11111222,11111222' 
TCOON,ioos:station:TCOON:057:1,2015-12-01T16:24:00Z,28.4460,-96.3961,0.0,5.5,4.0,6.3,'11111222,11111222,11111222' 
TCOON,ioos:station:TCOON:057:1,2015-12-01T16:30:00Z,28.4460,-96.3961,0.0,5.3,4.0,6.6,'11111222,11111222,11111222' 
TCOON,ioos:station:TCOON:057:1,2015-12-01T16:36:00Z,28.4460,-96.3961,0.0,5.3,4.0,6.6,'1111122,1111122,1111122' 
TCOON,ioos:station:TCOON:057:1,2015-12-01T16:42:00Z,28.4460,-96.3961,0.0,5.5,9.0,6.8,'11111222,11111222,11111222' 
TCOON,ioos:station:TCOON:057:1,2015-12-01T16:48:00Z,28.4460,-96.3961,0.0,5.0,8.0,6.0,'11111222,11111222,11111222' 
TCOON,ioos:station:TCOON:057:1,2015-12-01T16:54:00Z,28.4460,-96.3961,0.0,5.3,7.0,6.3,'11111222,11111222,11111222' 
TCOON,ioos:station:TCOON:057:1,2015-12-01T17:00:00Z,28.4460,-96.3961,0.0,4.8,6.0,5.9,'11111222,11111222,11111222' 
TCOON,ioos:station:TCOON:057:1,2015-12-01T17:06:00Z,28.4460,-96.3961,0.0,5.4,356.0,6.6,'11111222,11111222,11111222' 
TCOON,ioos:station:TCOON:057:1,2015-12-01T17:12:00Z,28.4460,-96.3961,0.0,5.2,4.0,5.8,'11111222,11111222,11111222' 
TCOON,ioos:station:TCOON:057:1,2015-12-01T17:18:00Z,28.4460,-96.3961,0.0,5.4,354.0,6.4,'11111222,11111222,11111222' 
TCOON,ioos:station:TCOON:057:1,2015-12-01T17:24:00Z,28.4460,-96.3961,0.0,5.4,354.0,6.4,'1111122,1111122,1111122' 
TCOON,ioos:station:TCOON:057:1,2015-12-01T17:30:00Z,28.4460,-96.3961,0.0,6.7,348.0,7.4,'11111222,11111222,11111222' 
TCOON,ioos:station:TCOON:057:1,2015-12-01T17:36:00Z,28.4460,-96.3961,0.0,6.2,347.0,7.4,'11111222,11111222,11111222' 
TCOON,ioos:station:TCOON:057:1,2015-12-01T17:42:00Z,28.4460,-96.3961,0.0,5.9,353.0,7.2,'11111222,11111222,11111222' 
TCOON,ioos:station:TCOON:057:1,2015-12-01T17:48:00Z,28.4460,-96.3961,0.0,5.7,353.0,6.8,'11111222,11111222,11111222' 
TCOON,ioos:station:TCOON:057:1,2015-12-01T17:54:00Z,28.4460,-96.3961,0.0,6.1,347.0,6.7,'11111222,11111222,11111222' 
TCOON,ioos:station:TCOON:057:1,2015-12-01T18:00:00Z,28.4460,-96.3961,0.0,4.5,356.0,6.1,'11111222,11111222,11111222' 
TCOON,ioos:station:TCOON:057:1,2015-12-01T18:06:00Z,28.4460,-96.3961,0.0,4.9,347.0,6.1,'11111222,11111222,11111222' 
TCOON,ioos:station:TCOON:057:1,2015-12-01T18:12:00Z,28.4460,-96.3961,0.0,5.6,347.0,6.4,'11111222,11111222,11111222' 
TCOON,ioos:station:TCOON:057:1,2015-12-01T18:18:00Z,28.4460,-96.3961,0.0,5.6,344.0,6.4,'11111222,11111222,11111222' 
TCOON,ioos:station:TCOON:057:1,2015-12-01T18:24:00Z,28.4460,-96.3961,0.0,5.5,342.0,6.7,'11111222,11111222,11111222' 
TCOON,ioos:station:TCOON:057:1,2015-12-01T18:30:00Z,28.4460,-96.3961,0.0,5.6,345.0,6.7,'11111222,11111222,11111222' 
TCOON,ioos:station:TCOON:057:1,2015-12-01T18:36:00Z,28.4460,-96.3961,0.0,5.6,345.0,6.7,'1111122,1111122,1111122' 
TCOON,ioos:station:TCOON:057:1,2015-12-01T18:42:00Z,28.4460,-96.3961,0.0,4.9,342.0,6.2,'11111222,11111222,11111222' 
TCOON,ioos:station:TCOON:057:1,2015-12-01T18:48:00Z,28.4460,-96.3961,0.0,4.7,346.0,6.3,'11111222,11111222,11111222' 
TCOON,ioos:station:TCOON:057:1,2015-12-01T18:54:00Z,28.4460,-96.3961,0.0,4.5,350.0,5.7,'11111222,11111222,11111222' 
TCOON,ioos:station:TCOON:057:1,2015-12-01T19:00:00Z,28.4460,-96.3961,0.0,4.1,341.0,5.0,'11111222,11111222,11111222' 
TCOON,ioos:station:TCOON:057:1,2015-12-01T19:06:00Z,28.4460,-96.3961,0.0,3.6,353.0,4.6,'11111222,11111222,11111222' 
TCOON,ioos:station:TCOON:057:1,2015-12-01T19:12:00Z,28.4460,-96.3961,0.0,3.1,354.0,4.4,'11111222,11111222,11111222' 
TCOON,ioos:station:TCOON:057:1,2015-12-01T19:18:00Z,28.4460,-96.3961,0.0,3.4,358.0,4.5,'11111222,11111222,11111222' 
TCOON,ioos:station:TCOON:057:1,2015-12-01T19:24:00Z,28.4460,-96.3961,0.0,2.9,12.0,4.0,'11111222,11111222,11111222' 
TCOON,ioos:station:TCOON:057:1,2015-12-01T19:30:00Z,28.4460,-96.3961,0.0,2.9,12.0,4.0,'1111122,1111122,1111122' 
TCOON,ioos:station:TCOON:057:1,2015-12-01T19:36:00Z,28.4460,-96.3961,0.0,3.6,11.0,4.1,'11111222,11111222,11111222' 
TCOON,ioos:station:TCOON:057:1,2015-12-01T19:42:00Z,28.4460,-96.3961,0.0,3.5,12.0,4.3,'11111222,11111222,11111222' 
TCOON,ioos:station:TCOON:057:1,2015-12-01T19:48:00Z,28.4460,-96.3961,0.0,4.0,360.0,4.6,'11111222,11144222,11111222' 
TCOON,ioos:station:TCOON:057:1,2015-12-01T19:54:00Z,28.4460,-96.3961,0.0,3.5,356.0,5.0,'11111222,11111222,11111222' 
TCOON,ioos:station:TCOON:057:1,2015-12-01T20:00:00Z,28.4460,-96.3961,0.0,3.7,6.0,4.5,'11111222,11111222,11111222' 
TCOON,ioos:station:TCOON:057:1,2015-12-01T20:06:00Z,28.4460,-96.3961,0.0,3.7,345.0,4.3,'11111222,11111222,11111222' 
TCOON,ioos:station:TCOON:057:1,2015-12-01T20:12:00Z,28.4460,-96.3961,0.0,3.2,338.0,3.9,'11111222,11111222,11111222' 
TCOON,ioos:station:TCOON:057:1,2015-12-01T20:18:00Z,28.4460,-96.3961,0.0,3.4,346.0,3.9,'11111222,11111222,11111222' 
TCOON,ioos:station:TCOON:057:1,2015-12-01T20:24:00Z,28.4460,-96.3961,0.0,3.3,347.0,4.1,'11111222,11111222,11111222' 